Location: Hartford
(41.7640°N, 72.6860°W)
Time: 04:19:31
(UTC-05:00)

Amateur Radio Satellites - All Passes

Search period start: 24 November 2014 03:49
Search period end: 25 November 2014 03:49
Location: Hartford, 41.7640°N, 72.6860°W

Satellite Date Start Highest point End Downlink Frequencies (MHz)
Time Altitude Azimuth
AIST 2 24 Nov 04:06:15 04:08:00 12° 37° (NE) 04:09:44 435.215
HORYU 2 24 Nov 04:06:41 04:10:31 28° 292° (WNW) 04:14:20 437.375
PRISM 24 Nov 04:13:33 04:16:50 23° 66° (ENE) 04:20:08 437.425
AO-7 24 Nov 04:26:41 04:35:06 86° 108° (ESE) 04:43:29 29.400- 29.500
ISS 24 Nov 04:28:26 04:30:54 19° 15° (NNE) 04:33:21 145.825
JAS-2 24 Nov 04:43:15 04:50:11 49° 97° (E) 04:56:19 435.910
YUBILEINY 24 Nov 04:44:02 04:50:00 20° 298° (WNW) 04:55:59 435.215
O/OREOS (USA 219) 24 Nov 04:49:54 04:51:32 12° 98° (E) 04:53:11 437.305
CUTE-I 24 Nov 04:53:51 04:56:20 13° 89° (E) 04:58:49 437.470
STRAND 1 24 Nov 04:59:49 05:04:13 30° 66° (ENE) 05:08:38 437.568
BEESAT 3 24 Nov 05:04:55 05:09:07 68° 56° (NE) 05:13:15 437.485
SO-50 24 Nov 05:06:33 05:10:33 30° 314° (NW) 05:14:40 436.795
PCSat 24 Nov 05:12:02 05:17:29 79° 242° (WSW) 05:22:53 145.827
BEESAT 2 24 Nov 05:18:30 05:22:44 84° 58° (ENE) 05:26:54 435.950
CUBESAT XI-V 24 Nov 05:22:17 05:26:45 44° 71° (ENE) 05:31:15 437.345
MOZHAYETS 4 24 Nov 05:27:06 05:29:21 13° 270° (W) 05:31:36
AIST 2 24 Nov 05:43:04 05:47:24 76° 56° (ENE) 05:51:39 435.215
PRISM 24 Nov 05:48:28 05:52:13 31° 263° (W) 05:56:01 437.425
Cubesat XI-IV 24 Nov 05:49:43 05:54:50 46° 99° (E) 05:59:55 437.490
AIST 1 24 Nov 05:57:38 06:01:14 24° 73° (ENE) 06:04:48
ISS 24 Nov 06:04:41 06:07:59 73° 34° (NE) 06:11:17 145.825
AO-7 24 Nov 06:20:45 06:26:55 24° 308° (NW) 06:33:06 29.400- 29.500
O/OREOS (USA 219) 24 Nov 06:25:53 06:30:20 65° 294° (WNW) 06:34:48 437.305
JAS-2 24 Nov 06:28:38 06:34:54 33° 298° (WNW) 06:40:34 435.910
CUTE-I 24 Nov 06:31:39 06:36:59 76° 286° (WNW) 06:42:16 437.470
STRAND 1 24 Nov 06:38:38 06:43:17 34° 263° (W) 06:47:59 437.568
GONETS M04 24 Nov 06:40:05 06:46:02 21° 78° (ENE) 06:51:58
BEESAT 3 24 Nov 06:45:17 06:46:46 12° 252° (WSW) 06:48:14 437.485
CUBESAT XI-V 24 Nov 07:01:02 07:04:24 19° 268° (W) 07:07:47 437.345
HO-68 24 Nov 07:15:24 07:18:39 13° 88° (E) 07:21:53 435.675
AIST 2 24 Nov 07:24:22 07:25:23 11° 253° (WSW) 07:26:24 435.215
Cubesat XI-IV 24 Nov 07:30:26 07:34:38 24° 296° (WNW) 07:38:48 437.490
AIST 1 24 Nov 07:35:07 07:38:52 28° 271° (W) 07:42:34
CANX-2 24 Nov 07:42:26 07:44:43 14° 91° (E) 07:47:00 2200.000
ISS 24 Nov 07:42:34 07:44:14 13° 230° (SW) 07:45:55 145.825
COMPASS 1 24 Nov 07:52:55 07:54:34 12° 90° (E) 07:56:12 437.405
DOVE 4 24 Nov 08:11:24 08:13:21 13° 91° (E) 08:15:18 437.250
CUTE-I 24 Nov 08:14:54 08:16:08 11° 304° (NW) 08:17:22 437.470
CUTE 1.7 & AOD 2 24 Nov 08:16:09 08:19:57 30° 96° (E) 08:23:44 437.475
ANTELSAT 24 Nov 08:18:38 08:19:38 11° 61° (ENE) 08:20:38 437.575/2403.000
GONETS M04 24 Nov 08:32:53 08:41:41 83° 278° (W) 08:50:36
UKube-1 24 Nov 08:34:35 08:36:44 13° 91° (E) 08:38:52 .
GOMX 1 24 Nov 08:42:20 08:46:14 38° 98° (E) 08:50:11 467.674
Oscar 11 24 Nov 08:46:24 08:49:46 22° 94° (E) 08:53:08 145.826/435.025
CUBEBUG 2 24 Nov 08:50:17 08:52:28 14° 91° (E) 08:54:40 437.445
SEEDS 24 Nov 08:51:32 08:55:47 66° 101° (E) 09:00:02 437.485
UWE-3 24 Nov 08:54:56 08:57:00 13° 91° (E) 08:59:06 435.000/436.395/437.385
POLYITAN 1 24 Nov 08:57:06 09:00:11 20° 66° (ENE) 09:03:17 437.675
QB50P2 24 Nov 08:59:49 09:03:01 21° 66° (ENE) 09:06:14 145.880/145.840
HO-68 24 Nov 09:00:10 09:07:23 81° 106° (ESE) 09:14:33 435.675
BRITE-PL 24 Nov 09:00:26 09:04:36 89° 103° (ESE) 09:08:47 437.365/2234.400
CINEMA 3 24 Nov 09:01:09 09:04:49 28° 96° (E) 09:08:33 145.822/145.860
DX 1 24 Nov 09:06:40 09:10:33 31° 97° (E) 09:14:23 434.975-435.025
DUCHIFAT 1 24 Nov 09:06:56 09:10:23 24° 68° (ENE) 09:13:50 145.980
TIGRISAT 24 Nov 09:10:56 09:14:51 37° 71° (ENE) 09:18:47 435.000
AAUSAT CUBESAT 2 24 Nov 09:12:32 09:16:47 85° 102° (ESE) 09:21:02 437.432
CANX-2 24 Nov 09:16:47 09:20:57 51° 287° (WNW) 09:25:07 2200.000
UNISAT 6 24 Nov 09:23:10 09:27:20 52° 73° (ENE) 09:31:29 437.425
NANOSAT C BR1 24 Nov 09:25:24 09:29:21 38° 71° (ENE) 09:33:19 145.865
COMPASS 1 24 Nov 09:26:29 09:30:40 59° 286° (WNW) 09:34:50 437.405
DELFI C3 24 Nov 09:28:04 09:32:08 53° 100° (E) 09:36:11 145.870
VELOX 1 24 Nov 09:28:17 09:31:11 17° 92° (E) 09:34:03 145.980
HUMSAT D 24 Nov 09:32:23 09:35:14 18° 93° (E) 09:38:05 437.325/437.525
ZACube-1 24 Nov 09:33:15 09:36:59 30° 97° (E) 09:40:46 437.345
QB50P1 24 Nov 09:34:50 09:38:56 49° 73° (ENE) 09:43:03 145.935-145.965
50 SAT 24 Nov 09:35:05 09:37:30 15° 92° (E) 09:39:55 437.505
DOVE 4 24 Nov 09:47:24 09:51:26 50° 287° (WNW) 09:55:33 437.250
ANTELSAT 24 Nov 09:51:34 09:55:51 74° 258° (WSW) 10:00:08 437.575/2403.000
CUTE 1.7 & AOD 2 24 Nov 09:52:19 09:55:45 24° 292° (WNW) 09:59:12 437.475
AISAT 24 Nov 09:52:27 09:56:25 31° 97° (E) 10:00:20 437.250
BUGSAT 1 24 Nov 09:55:50 10:00:05 71° 75° (ENE) 10:04:19 437.445
POPSAT HIP 1 24 Nov 09:59:11 10:03:27 88° 257° (WSW) 10:07:44 437.405
FUNcube-1 24 Nov 10:08:32 10:12:45 76° 102° (ESE) 10:17:02 145.935
UKube-1 24 Nov 10:08:59 10:13:14 54° 287° (WNW) 10:17:27 .
CUBEBUG 1 24 Nov 10:13:29 10:16:35 19° 93° (E) 10:19:40 437.445
GOMX 1 24 Nov 10:21:22 10:24:07 18° 294° (WNW) 10:26:54 467.674
Oscar 11 24 Nov 10:22:05 10:26:00 34° 290° (WNW) 10:29:55 145.826/435.025
CUBEBUG 2 24 Nov 10:25:22 10:29:27 50° 287° (WNW) 10:33:37 437.445
SEEDS 24 Nov 10:29:24 10:31:04 12° 298° (WNW) 10:32:45 437.485
UWE-3 24 Nov 10:29:45 10:33:51 52° 287° (WNW) 10:38:02 435.000/436.395/437.385
POLYITAN 1 24 Nov 10:31:56 10:35:54 37° 262° (W) 10:39:52 437.675
GONETS M04 24 Nov 10:34:28 10:40:00 18° 300° (WNW) 10:45:35
QB50P2 24 Nov 10:34:51 10:38:44 34° 263° (W) 10:42:39 145.880/145.840
CINEMA 3 24 Nov 10:38:33 10:41:56 24° 292° (WNW) 10:45:23 145.822/145.860
DUCHIFAT 1 24 Nov 10:42:25 10:46:08 29° 264° (W) 10:49:52 145.980
DX 1 24 Nov 10:43:09 10:46:39 24° 293° (WNW) 10:50:08 434.975-435.025
TIGRISAT 24 Nov 10:48:47 10:51:46 18° 267° (W) 10:54:45 435.000
HO-68 24 Nov 10:49:12 10:54:17 22° 304° (NW) 10:59:22 435.675
ESTCUBE 1 24 Nov 10:55:08 10:59:37 56° 100° (E) 11:04:04 437.505/2401.250
UNISAT 6 24 Nov 11:02:22 11:04:27 13° 269° (W) 11:06:33 437.425
NANOSAT C BR1 24 Nov 11:02:25 11:05:23 18° 267° (W) 11:08:22 145.865
VELOX 1 24 Nov 11:03:47 11:08:00 44° 289° (WNW) 11:12:11 145.980
DELFI C3 24 Nov 11:04:53 11:07:00 14° 296° (WNW) 11:09:08 145.870
HUMSAT D 24 Nov 11:07:20 11:11:11 38° 289° (WNW) 11:15:04 437.325/437.525
50 SAT 24 Nov 11:09:11 11:13:01 42° 288° (WNW) 11:16:52 437.505
ZACube-1 24 Nov 11:09:53 11:13:14 23° 292° (WNW) 11:16:37 437.345
QB50P1 24 Nov 11:12:46 11:15:07 14° 268° (W) 11:17:28 145.935-145.965
AISAT 24 Nov 11:29:19 11:32:55 25° 293° (WNW) 11:36:29 437.250
ITAMSAT 1 24 Nov 11:33:01 11:33:26 10° 56° (NE) 11:33:51 435.822/435.867
TISAT 1 24 Nov 11:40:51 11:44:52 42° 99° (E) 11:48:51 437.305
SPROUT 24 Nov 11:44:36 11:48:41 41° 98° (E) 11:52:43 437.525
FUNcube-1 24 Nov 11:47:50 11:48:32 10° 298° (WNW) 11:49:14 145.935
CUBEBUG 1 24 Nov 11:49:03 11:53:08 39° 289° (WNW) 11:57:09 437.445
AUBIESAT-1 24 Nov 11:54:06 11:55:25 11° 93° (E) 11:56:44 437.475
SO-50 24 Nov 11:56:45 12:01:18 38° 49° (NE) 12:05:52 436.795
M-CUBED/EXP-1 PRIME 24 Nov 11:57:01 11:59:24 13° 94° (E) 12:01:46 437.505
CUSAT 1 24 Nov 12:17:16 12:19:12 17° 94° (E) 12:21:03 437.405
Oscar 19 24 Nov 12:18:02 12:23:05 65° 73° (ENE) 12:28:10 437.125/150
BEESAT 24 Nov 12:18:21 12:21:27 17° 92° (E) 12:24:30 436.000
ESTCUBE 1 24 Nov 12:33:22 12:36:02 16° 297° (WNW) 12:38:42 437.505/2401.250
DANDE 24 Nov 12:34:20 12:36:48 25° 96° (E) 12:39:04 436.750
YUBILEINY 24 Nov 12:53:15 13:01:35 46° 74° (ENE) 13:09:48 435.215
ITAMSAT 1 24 Nov 13:06:47 13:11:59 73° 74° (ENE) 13:17:13 435.822/435.867
ITUPSAT 1 24 Nov 13:11:38 13:16:23 57° 101° (E) 13:21:05 437.325
KKS-1 24 Nov 13:15:48 13:17:45 13° 91° (E) 13:19:42 437.445
TISAT 1 24 Nov 13:17:38 13:20:23 17° 295° (WNW) 13:23:08 437.305
SPROUT 24 Nov 13:21:33 13:24:28 18° 295° (WNW) 13:27:22 437.525
SWISSCUBE 24 Nov 13:23:17 13:28:07 83° 103° (ESE) 13:32:54 437.505
AUBIESAT-1 24 Nov 13:26:02 13:30:59 87° 289° (WNW) 13:35:50 437.475
Gurwin Techsat 1B 24 Nov 13:28:13 13:33:27 66° 73° (ENE) 13:38:44 435.225
HORYU 2 24 Nov 13:29:13 13:32:57 28° 68° (ENE) 13:36:43 437.375
M-CUBED/EXP-1 PRIME 24 Nov 13:29:58 13:34:54 74° 290° (WNW) 13:39:46 437.505
AO-7 24 Nov 13:35:21 13:41:58 28° 55° (NE) 13:48:37 29.400- 29.500
SO-50 24 Nov 13:37:32 13:41:45 30° 246° (WSW) 13:45:58 436.795
VERMONT LUNAR 24 Nov 13:52:37 13:54:09 12° 146° (SSE) 13:55:42 437.305
BEESAT 24 Nov 13:54:56 13:59:36 52° 288° (WNW) 14:04:13 436.000
Oscar 19 24 Nov 14:00:00 14:02:52 15° 270° (W) 14:05:46 437.125/150
STARS 24 Nov 14:13:42 14:17:46 36° 98° (E) 14:21:49 437.465
MaSat-1 24 Nov 14:42:49 14:45:26 26° 111° (ESE) 14:47:52 437.345
ITAMSAT 1 24 Nov 14:49:27 14:52:00 14° 270° (W) 14:54:34 435.822/435.867
YUBILEINY 24 Nov 14:50:22 14:58:11 39° 274° (W) 15:05:59 435.215
KKS-1 24 Nov 14:50:24 14:54:47 60° 287° (WNW) 14:59:09 437.445
ITUPSAT 1 24 Nov 14:50:45 14:53:49 17° 298° (WNW) 14:56:52 437.325
JAS-2 24 Nov 14:54:45 15:00:54 27° 60° (ENE) 15:07:10 435.910
O/OREOS (USA 219) 24 Nov 14:56:46 15:00:31 26° 58° (ENE) 15:04:15 437.305
AUBIESAT-1 24 Nov 15:03:06 15:05:13 13° 306° (NW) 15:07:18 437.475
SWISSCUBE 24 Nov 15:03:26 15:05:17 12° 301° (WNW) 15:07:08 437.505
HORYU 2 24 Nov 15:05:46 15:09:34 28° 264° (W) 15:13:23 437.375
M-CUBED/EXP-1 PRIME 24 Nov 15:07:48 15:09:05 11° 307° (NW) 15:10:23 437.505
PHONESAT 2.4 24 Nov 15:10:42 15:13:54 28° 155° (SSE) 15:17:06 2401.200-2431.200
Gurwin Techsat 1B 24 Nov 15:10:44 15:13:53 16° 270° (W) 15:17:02 435.225
RS-15 24 Nov 15:16:37 15:26:40 44° 109° (ESE) 15:36:40 29.354- 29.394
AO-7 24 Nov 15:25:46 15:34:01 73° 254° (WSW) 15:42:22 29.400- 29.500
VERMONT LUNAR 24 Nov 15:28:38 15:32:04 42° 162° (SSE) 15:35:31 437.305
Cubesat XI-IV 24 Nov 15:36:36 15:38:08 11° 56° (ENE) 15:39:41 437.490
MOZHAYETS 4 24 Nov 15:43:46 15:46:21 15° 90° (E) 15:48:55
STARS 24 Nov 15:50:43 15:54:02 21° 294° (WNW) 15:57:21 437.465
CUTE-I 24 Nov 16:15:18 16:19:33 25° 64° (ENE) 16:23:48 437.470
MaSat-1 24 Nov 16:18:37 16:20:02 13° 304° (NW) 16:21:24 437.345
O/OREOS (USA 219) 24 Nov 16:35:58 16:39:55 32° 255° (WSW) 16:43:53 437.305
JAS-2 24 Nov 16:37:39 16:45:11 71° 258° (WSW) 16:53:05 435.910
PHONESAT 2.4 24 Nov 16:48:43 16:52:24 66° 172° (S) 16:56:06 2401.200-2431.200
VERMONT LUNAR 24 Nov 17:06:46 17:10:24 74° 178° (S) 17:14:02 437.305
Cubesat XI-IV 24 Nov 17:11:58 17:17:20 78° 74° (ENE) 17:22:43 437.490
MOZHAYETS 4 24 Nov 17:19:21 17:23:56 57° 287° (WNW) 17:28:29
CUBESAT XI-V 24 Nov 17:21:43 17:22:47 11° 88° (E) 17:23:51 437.345
AO-7 24 Nov 17:24:42 17:28:10 13° 273° (W) 17:31:39 29.400- 29.500
RS-15 24 Nov 17:27:59 17:38:41 57° 312° (NW) 17:49:29 29.354- 29.394
PRISM 24 Nov 17:31:15 17:35:09 34° 98° (E) 17:39:00 437.425
HO-68 24 Nov 17:46:23 17:49:14 13° 49° (NE) 17:52:06 435.675
CUTE-I 24 Nov 17:54:12 17:59:20 45° 261° (W) 18:04:29 437.470
PCSat 24 Nov 18:14:30 18:16:31 12° 102° (ESE) 18:18:31 145.827
PHONESAT 2.4 24 Nov 18:27:26 18:31:08 66° 189° (S) 18:34:49 2401.200-2431.200
JAS-2 24 Nov 18:28:13 18:31:28 13° 277° (W) 18:34:48 435.910
AIST 1 24 Nov 18:29:00 18:31:25 15° 85° (E) 18:33:51
BRITE-PL 24 Nov 18:36:06 18:38:09 13° 63° (ENE) 18:40:09 437.365/2234.400
CANX-2 24 Nov 18:37:30 18:38:52 11° 62° (ENE) 18:40:13 2200.000
GONETS M04 24 Nov 18:43:03 18:51:38 51° 75° (ENE) 19:00:06
VERMONT LUNAR 24 Nov 18:45:15 18:48:46 49° 195° (SSW) 18:52:18 437.305
STRAND 1 24 Nov 18:48:20 18:53:28 79° 103° (ESE) 18:58:33 437.568
Cubesat XI-IV 24 Nov 18:55:30 18:58:00 13° 271° (W) 19:00:30 437.490
CUBESAT XI-V 24 Nov 18:56:05 19:00:47 76° 285° (WNW) 19:05:24 437.345
BEESAT 3 24 Nov 19:02:53 19:04:27 12° 108° (ESE) 19:06:02 437.485
PRISM 24 Nov 19:07:17 19:10:29 21° 294° (WNW) 19:13:40 437.425
CUTE 1.7 & AOD 2 24 Nov 19:10:07 19:13:27 23° 68° (ENE) 19:16:48 437.475
BEESAT 2 24 Nov 19:16:04 19:18:30 15° 110° (ESE) 19:20:57 435.950
DOVE 4 24 Nov 19:17:37 19:20:28 17° 65° (ENE) 19:23:15 437.250
HO-68 24 Nov 19:28:29 19:35:32 62° 69° (ENE) 19:42:37 435.675
UKube-1 24 Nov 19:30:44 19:32:53 14° 62° (ENE) 19:35:02 .
Oscar 11 24 Nov 19:42:14 19:45:12 19° 65° (ENE) 19:48:11 145.826/435.025
AIST 2 24 Nov 19:43:37 19:46:05 15° 109° (ESE) 19:48:34 435.215
SEEDS 24 Nov 19:44:19 19:48:20 47° 73° (ENE) 19:52:23 437.485
RS-15 24 Nov 19:45:48 19:54:11 24° 343° (NNW) 20:02:42 29.354- 29.394
CUBEBUG 2 24 Nov 19:50:09 19:52:07 13° 64° (ENE) 19:54:04 437.445
GOMX 1 24 Nov 19:50:36 19:55:14 48° 73° (ENE) 19:59:34 467.674
PCSat 24 Nov 19:53:41 19:59:06 89° 299° (WNW) 20:04:34 145.827
UWE-3 24 Nov 19:53:51 19:55:34 12° 63° (ENE) 19:57:17 435.000/436.395/437.385
DX 1 24 Nov 20:02:49 20:06:37 29° 68° (ENE) 20:10:25 434.975-435.025
CINEMA 3 24 Nov 20:03:45 20:07:31 29° 70° (ENE) 20:11:12 145.822/145.860
AAUSAT CUBESAT 2 24 Nov 20:04:11 20:08:16 59° 74° (ENE) 20:12:23 437.432
AIST 1 24 Nov 20:04:23 20:08:37 48° 282° (WNW) 20:12:55
PHONESAT 2.4 24 Nov 20:06:27 20:09:38 27° 205° (SSW) 20:12:48 2401.200-2431.200
CANX-2 24 Nov 20:10:02 20:14:14 69° 259° (WSW) 20:18:27 2200.000
BRITE-PL 24 Nov 20:11:03 20:16:10 78° 258° (WSW) 20:20:53 437.365/2234.400
DELFI C3 24 Nov 20:17:26 20:21:08 35° 71° (ENE) 20:24:51 145.870
COMPASS 1 24 Nov 20:18:20 20:22:30 83° 258° (WSW) 20:26:42 437.405
VERMONT LUNAR 24 Nov 20:24:29 20:26:47 16° 211° (SSW) 20:29:05 437.305
50 SAT 24 Nov 20:26:07 20:27:23 11° 63° (ENE) 20:28:39 437.505
HUMSAT D 24 Nov 20:26:14 20:28:26 14° 64° (ENE) 20:30:38 437.325/437.525
VELOX 1 24 Nov 20:27:00 20:29:57 18° 64° (ENE) 20:32:55 145.980
STRAND 1 24 Nov 20:29:25 20:31:58 14° 301° (WNW) 20:34:32 437.568
ZACube-1 24 Nov 20:30:19 20:33:48 25° 69° (ENE) 20:37:15 437.345
BEESAT 3 24 Nov 20:38:02 20:42:07 65° 305° (NW) 20:46:16 437.485
GONETS M04 24 Nov 20:40:23 20:48:06 36° 275° (W) 20:55:46
CUTE 1.7 & AOD 2 24 Nov 20:45:32 20:49:15 30° 264° (W) 20:52:59 437.475
AISAT 24 Nov 20:51:10 20:55:06 31° 69° (ENE) 20:59:02 437.250
BEESAT 2 24 Nov 20:52:20 20:56:21 51° 307° (NW) 21:00:28 435.950
DOVE 4 24 Nov 20:53:23 20:57:56 50° 260° (W) 21:02:14 437.250
UKube-1 24 Nov 21:04:14 21:08:33 61° 258° (WSW) 21:12:53 .
FUNcube-1 24 Nov 21:05:00 21:09:09 61° 74° (ENE) 21:13:17 145.935
CUBEBUG 1 24 Nov 21:10:39 21:13:40 18° 65° (ENE) 21:16:41 437.445
Oscar 11 24 Nov 21:17:01 21:21:04 41° 262° (W) 21:25:10 145.826/435.025
UNISAT 6 24 Nov 21:17:24 21:18:36 11° 90° (E) 21:19:48 437.425
HO-68 24 Nov 21:17:57 21:23:40 25° 266° (W) 21:29:27 435.675
AIST 2 24 Nov 21:20:06 21:24:15 54° 306° (NW) 21:28:29 435.215
SEEDS 24 Nov 21:22:08 21:24:27 14° 269° (W) 21:26:46 437.485
CUBEBUG 2 24 Nov 21:24:09 21:28:23 58° 259° (W) 21:32:32 437.445
UWE-3 24 Nov 21:27:25 21:31:38 62° 259° (W) 21:35:48 435.000/436.395/437.385
GOMX 1 24 Nov 21:30:21 21:33:32 18° 267° (W) 21:36:37 467.674
DX 1 24 Nov 21:39:10 21:42:50 26° 264° (W) 21:46:30 434.975-435.025
PCSat 24 Nov 21:39:51 21:43:18 17° 319° (NW) 21:46:46 145.827
CINEMA 3 24 Nov 21:41:04 21:44:43 25° 264° (W) 21:48:17 145.822/145.860
AAUSAT CUBESAT 2 24 Nov 21:43:02 21:44:20 11° 270° (W) 21:45:39 437.432
ANTELSAT 24 Nov 21:44:00 21:47:29 22° 94° (E) 21:51:01 437.575/2403.000
POPSAT HIP 1 24 Nov 21:46:05 21:48:29 15° 92° (E) 21:50:53 437.405
DELFI C3 24 Nov 21:53:41 21:56:33 18° 267° (W) 21:59:26 145.870
ESTCUBE 1 24 Nov 21:55:08 21:59:33 54° 73° (ENE) 22:04:01 437.505/2401.250
50 SAT 24 Nov 21:58:11 22:02:11 63° 259° (W) 22:06:12 437.505
HUMSAT D 24 Nov 21:59:49 22:03:51 50° 260° (W) 22:07:53 437.325/437.525
VELOX 1 24 Nov 22:01:51 22:06:10 48° 260° (W) 22:10:31 145.980
RS-15 24 Nov 22:03:11 22:11:49 25° 19° (NNE) 22:20:39 29.354- 29.394
ZACube-1 24 Nov 22:06:31 22:10:06 27° 264° (W) 22:13:40 437.345
POLYITAN 1 24 Nov 22:17:36 22:21:27 33° 97° (E) 22:25:17 437.675
QB50P2 24 Nov 22:20:09 22:24:04 36° 98° (E) 22:27:58 145.880/145.840
BEESAT 3 24 Nov 22:20:30 22:21:11 10° 325° (NW) 22:21:53 437.485
DUCHIFAT 1 24 Nov 22:27:05 22:31:06 42° 99° (E) 22:35:05 145.980
AISAT 24 Nov 22:28:00 22:31:43 25° 265° (W) 22:35:28 437.250
TISAT 1 24 Nov 22:33:58 22:37:49 34° 70° (ENE) 22:41:41 437.305
TIGRISAT 24 Nov 22:38:31 22:42:56 84° 103° (ESE) 22:47:27 435.000
SPROUT 24 Nov 22:39:21 22:43:15 34° 70° (ENE) 22:47:09 437.525
AUBIESAT-1 24 Nov 22:43:25 22:45:40 14° 55° (NE) 22:48:00 437.475
FUNcube-1 24 Nov 22:44:44 22:45:54 11° 270° (W) 22:47:05 145.935
CUBEBUG 1 24 Nov 22:45:26 22:49:42 45° 261° (W) 22:53:59 437.445
NANOSAT C BR1 24 Nov 22:46:07 22:50:21 71° 102° (ESE) 22:54:33 145.865
M-CUBED/EXP-1 PRIME 24 Nov 22:47:10 22:49:49 17° 57° (ENE) 22:52:37 437.505
ISS 24 Nov 22:47:14 22:49:40 19° 133° (SE) 22:52:06 145.825
UNISAT 6 24 Nov 22:51:25 22:55:50 70° 285° (WNW) 23:00:19 437.425
CUSAT 1 24 Nov 22:52:38 22:56:31 27° 77° (ENE) 23:01:25 437.405
QB50P1 24 Nov 22:55:49 23:00:04 89° 284° (WNW) 23:04:17 145.935-145.965
SWISSCUBE 24 Nov 22:56:05 22:57:51 12° 59° (ENE) 22:59:36 437.505
DANDE 24 Nov 23:12:11 23:16:09 34° 78° (ENE) 23:21:19 436.750
BUGSAT 1 24 Nov 23:13:54 23:17:59 66° 285° (WNW) 23:21:59 437.445
ANTELSAT 24 Nov 23:20:20 23:24:21 35° 290° (WNW) 23:28:27 437.575/2403.000
POPSAT HIP 1 24 Nov 23:20:36 23:24:39 46° 288° (WNW) 23:28:41 437.405
BEESAT 24 Nov 23:25:22 23:28:56 21° 64° (ENE) 23:32:30 436.000
ESTCUBE 1 24 Nov 23:34:10 23:36:46 15° 269° (W) 23:39:22 437.505/2401.250
POLYITAN 1 24 Nov 23:54:00 23:57:12 21° 293° (WNW) 00:00:24 437.675
QB50P2 24 Nov 23:56:40 23:59:46 20° 294° (WNW) 00:02:51 145.880/145.840
DUCHIFAT 1 25 Nov 00:03:52 00:06:39 17° 295° (WNW) 00:09:25 145.980
TISAT 1 25 Nov 00:10:31 00:13:44 21° 266° (W) 00:16:58 437.305
KKS-1 25 Nov 00:15:00 00:17:09 14° 62° (ENE) 00:19:19 437.445
SPROUT 25 Nov 00:16:06 00:19:24 21° 266° (W) 00:22:44 437.525
AUBIESAT-1 25 Nov 00:16:07 00:20:04 61° 255° (WSW) 00:24:25 437.475
RS-15 25 Nov 00:16:09 00:27:12 60° 49° (NE) 00:38:41 29.354- 29.394
TIGRISAT 25 Nov 00:18:23 00:19:04 10° 299° (WNW) 00:19:45 435.000
ITUPSAT 1 25 Nov 00:18:44 00:23:30 68° 74° (ENE) 00:28:19 437.325
M-CUBED/EXP-1 PRIME 25 Nov 00:20:32 00:24:24 49° 256° (WSW) 00:28:40 437.505
MaSat-1 25 Nov 00:21:00 00:23:14 44° 62° (ENE) 00:25:32 437.345
ISS 25 Nov 00:22:51 00:26:04 51° 330° (NNW) 00:29:18 145.825
NANOSAT C BR1 25 Nov 00:24:26 00:25:39 11° 299° (WNW) 00:26:51 145.865
Oscar 19 25 Nov 00:30:02 00:34:03 22° 93° (E) 00:38:02 437.125/150
SWISSCUBE 25 Nov 00:30:11 00:35:00 85° 257° (WSW) 00:39:51 437.505
CUSAT 1 25 Nov 00:35:27 00:39:35 33° 264° (W) 00:44:54 437.405
DANDE 25 Nov 00:55:55 00:59:35 25° 265° (W) 01:04:10 436.750
BEESAT 25 Nov 01:01:54 01:06:28 44° 261° (W) 01:11:04 436.000
STARS 25 Nov 01:11:23 01:15:21 34° 69° (ENE) 01:19:19 437.465
ITAMSAT 1 25 Nov 01:20:05 01:24:20 25° 95° (E) 01:28:32 435.822/435.867
Gurwin Techsat 1B 25 Nov 01:44:45 01:49:07 26° 94° (E) 01:53:28 435.225
KKS-1 25 Nov 01:48:51 01:53:16 64° 258° (WSW) 01:57:42 437.445
YUBILEINY 25 Nov 01:54:09 02:02:35 53° 90° (E) 02:10:59 435.215
ITUPSAT 1 25 Nov 01:59:40 02:01:52 13° 270° (W) 02:04:04 437.325
ISS 25 Nov 02:01:01 02:03:17 17° 349° (N) 02:05:33 145.825
Oscar 19 25 Nov 02:08:40 02:13:34 45° 290° (WNW) 02:18:28 437.125/150
RS-15 25 Nov 02:28:57 02:39:15 44° 251° (WSW) 02:50:00 29.354- 29.394
MOZHAYETS 4 25 Nov 02:46:42 02:49:20 15° 63° (ENE) 02:51:58
STARS 25 Nov 02:48:27 02:51:54 22° 265° (W) 02:55:21 437.465
HORYU 2 25 Nov 02:56:21 03:00:45 54° 101° (E) 03:05:09 437.375
ITAMSAT 1 25 Nov 02:59:07 03:03:56 40° 291° (WNW) 03:08:42 435.822/435.867
PCSat 25 Nov 02:59:27 03:02:31 15° 39° (NE) 03:05:35 145.827
BEESAT 3 25 Nov 03:21:15 03:23:07 13° 38° (NE) 03:24:58 437.485
Gurwin Techsat 1B 25 Nov 03:24:15 03:29:12 41° 291° (WNW) 03:34:08 435.225
AO-7 25 Nov 03:27:15 03:34:57 39° 98° (E) 03:42:35 29.400- 29.500
BEESAT 2 25 Nov 03:35:17 03:37:44 15° 40° (NE) 03:40:11 435.950
ISS 25 Nov 03:38:42 03:40:53 16° 9° (N) 03:43:04 145.825
